Location: Vihti�l�
(61.3833°N, 23.0667°E)
Time: 04:02:31
(UTC+00:00)

Cosmos 1833 Rocket - Pass Details

Date: 29 November 2020
Orbit: 834 x 838 km, 71.0° (Epoch: 19 January)

Event Time Altitude Azimuth Distance (km) Brightness Sun altitude
Exits shadow 01:45:06 31° 37° (NE) 1,448 4.2 -36.5°
Drops below altitude 10° 01:49:01 10° 77° (ENE) 2,458 5.9 -36.1°
Sets 01:51:42 0° 87° (E) 3,390 6.7 -35.8°
